Main page
Satellite images Climate Cyclones Lightning AirportsFAQ Languages Contact Newsletter About
Weather : Europe Africa North America South America Asia Australia-Oceania Others

, Mae Sot, Mae Sot Airport

48375

latitude: , longitude: Thailand, elevation: 16-40N m


METAR: VTPM 211100Z 27005KT 9999 FEW025 30/21 Q1010 NOSIG